Wind_Speed
29 31 31 32 33 34 34 32 32 32 31 30 27 24 24 24 25 26 26 26 27 27 28 27 27 28 28 27 27 27 28 28 29 28 27 28 29 30 30 30 31 31 31
29 30 31 32 33 34 34 34 34 33 32 30 27 26 25 25 24 25 26 27 28 29 27 28 29 29 29 29 29 29 30 30 30 30 30 30 30 30 31 32 32 32 32
28 29 30 30 32 33 34 34 33 33 32 30 29 27 27 27 27 25 25 27 28 30 31 30 30 31 31 31 31 30 31 31 31 31 32 32 32 32 33 33 34 34 35
25 27 28 29 30 32 33 33 34 33 32 32 32 30 27 27 28 27 27 27 28 29 30 30 31 32 32 31 31 32 32 32 33 34 34 34 34 34 34 35 36 35 36
24 25 27 29 30 31 32 33 34 34 33 32 32 31 30 30 28 28 29 29 29 28 28 29 30 32 33 32 33 33 33 33 35 35 36 36 36 36 37 37 37 38 38
24 25 26 28 29 29 31 32 33 33 34 34 33 32 31 31 30 29 30 30 30 29 29 29 30 33 34 34 34 35 36 36 36 36 36 37 37 37 38 38 39 39 39
23 24 26 27 28 29 31 32 32 33 33 33 32 32 31 31 31 31 31 30 30 30 30 30 30 32 33 34 34 36 37 37 38 37 37 38 39 39 39 40 40 40 40
22 24 25 27 28 29 31 32 32 33 33 33 33 33 33 32 32 32 32 32 31 31 31 31 31 32 32 33 34 34 35 37 38 38 38 39 39 39 40 40 40 40 40
22 23 24 26 28 29 30 31 32 33 34 33 32 32 32 32 32 32 32 32 31 31 31 32 32 32 31 31 31 33 34 35 36 37 38 38 39 39 39 40 40 41 41
21 23 24 25 26 27 27 29 29 30 30 31 32 31 31 31 31 31 31 30 30 30 29 29 29 29 30 31 31 31 32 34 34 35 35 36 37 39 39 39 40 41 42
21 23 23 24 25 26 27 28 28 29 30 30 31 31 30 30 30 30 30 30 30 29 28 28 28 27 28 28 29 29 30 31 32 33 34 35 35 36 37 38 38 39 40
21 22 23 24 24 25 26 27 27 28 29 30 30 31 30 30 30 29 29 29 29 29 29 28 29 28 27 28 29 29 30 30 31 32 32 33 34 34 35 35 36 37 38
21 22 23 23 24 25 25 26 28 28 29 30 30 30 30 31 30 29 29 29 28 28 29 28 28 27 27 28 28 29 29 29 29 30 30 31 32 32 33 33 34 35 36
21 22 22 23 24 24 24 25 26 27 28 29 30 30 30 30 29 28 28 28 29 29 29 27 27 27 27 27 27 28 28 27 27 27 28 29 29 30 31 32 33 33 34
21 22 22 22 23 23 24 24 25 25 25 26 27 29 29 28 28 27 27 28 27 26 25 26 26 26 26 26 26 26 26 26 26 26 27 28 28 29 30 30 31 31 32
22 22 22 23 23 23 23 23 23 23 24 24 24 24 25 24 25 26 26 25 25 24 24 24 24 24 25 25 25 25 25 25 25 26 26 27 28 29 29 29 30 30 29
21 21 21 21 21 21 22 21 21 21 21 21 21 22 22 22 22 22 22 22 23 23 23 23 24 23 22 22 23 23 23 23 24 25 25 26 27 28 28 28 28 28 28
20 21 21 20 20 20 20 19 18 18 19 19 19 19 19 19 19 19 20 20 20 20 20 20 20 20 20 21 22 23 23 24 24 25 25 25 25 26 26 26 26 26 25
19 18 17 17 16 15 15 16 17 16 15 16 16 16 16 16 16 16 17 18 18 18 18 19 19 19 20 20 21 21 22 23 23 24 24 24 24 24 24 24 24 23 22
16 16 15 14 13 13 13 13 13 12 13 14 13 13 13 13 14 14 15 15 15 15 16 18 19 20 21 21 21 21 21 22 21 22 22 22 21 21 21 21 21 20 19
15 13 13 12 12 12 12 11 11 11 11 11 11 11 12 13 13 13 14 14 15 16 17 17 18 19 20 20 20 20 20 20 20 20 20 20 20 19 18 18 18 18 17
12 11 10 10 10 10 9 8 8 8 8 8 9 10 11 12 12 13 13 14 15 15 16 16 16 17 17 17 18 19 18 18 18 18 18 18 17 17 17 16 16 15 15
9 8 8 9 8 8 8 8 7 7 6 7 8 9 11 11 12 12 12 13 14 14 14 15 15 16 16 16 16 16 17 16 16 17 16 16 16 16 15 14 13 13 13
8 7 7 7 8 8 8 8 8 7 7 8 8 8 9 10 10 11 12 12 12 13 13 13 13 14 15 15 15 15 14 14 14 14 14 14 14 13 12 12 12 11 11
7 7 7 7 7 7 8 8 7 7 7 8 8 9 9 9 9 9 9 9 9 9 10 11 12 13 13 12 12 12 12 12 11 12 11 11 11 11 11 11 11 10 10
7 7 7 7 7 6 7 7 7 6 7 7 7 8 8 7 7 7 7 7 7 8 8 9 9 9 9 9 9 9 10 10 9 9 9 9 9 9 9 9 9 9 8
Wind_Direction
254 253 252 251 250 250 250 252 254 257 258 258 260 262 263 261 261 258 259 258 258 258 260 259 259 258 256 257 257 255 256 257 257 257 259 262 265 267 267 270 272 274 277
255 253 252 250 250 251 251 252 254 256 259 261 263 266 267 265 265 264 260 257 258 257 258 258 260 261 258 257 259 256 256 256 257 258 260 263 266 268 270 271 272 275 278
255 252 252 252 250 251 252 252 254 258 261 264 265 266 267 268 269 267 265 263 262 259 259 258 259 259 260 260 258 257 257 256 257 259 261 262 264 267 268 269 271 274 277
255 254 253 254 253 253 254 254 254 256 259 262 264 265 268 273 272 270 270 271 269 266 264 261 260 260 260 261 260 260 260 258 258 261 263 263 264 265 267 268 271 273 276
258 257 255 254 254 254 255 255 255 256 258 261 262 264 267 270 270 271 272 272 273 272 268 267 265 264 263 263 261 261 259 260 262 264 264 264 265 267 267 269 271 273 275
260 258 255 254 255 255 254 255 255 256 258 260 262 264 266 268 270 272 273 273 274 273 272 271 268 265 264 264 264 262 261 260 263 264 264 265 266 268 270 272 273 274 275
264 260 257 256 257 255 255 255 255 258 260 261 263 265 268 268 270 272 273 275 275 273 271 271 269 266 265 264 265 264 264 263 263 263 263 266 267 269 271 274 275 276 277
266 264 264 261 259 257 255 256 258 259 260 262 264 267 268 269 270 270 272 273 273 272 271 269 267 266 266 264 266 266 264 262 261 261 263 266 268 269 272 274 275 277 277
268 267 267 265 263 261 259 258 259 260 261 263 265 266 269 270 271 271 271 273 270 272 271 269 269 268 266 265 266 265 262 262 262 262 265 268 270 272 273 274 275 278 280
274 271 270 267 264 263 263 260 259 261 262 263 264 266 270 271 272 273 273 272 270 272 273 272 271 271 269 268 268 267 266 265 265 266 268 270 271 272 274 275 277 280 283
277 276 274 271 267 267 267 265 263 263 262 263 265 266 268 270 271 274 276 275 275 274 274 274 274 273 271 271 270 268 268 269 268 270 272 273 273 274 276 278 281 283 285
281 279 277 274 271 270 269 267 265 265 264 264 265 266 268 271 273 274 274 275 276 277 274 272 272 272 271 273 272 270 270 271 271 273 274 275 276 277 278 280 282 284 286
285 282 280 277 274 272 270 268 267 267 266 266 266 267 268 270 272 273 274 275 274 272 272 272 272 272 274 274 274 273 273 274 274 275 276 277 278 280 282 283 284 285 287
289 287 283 278 276 275 274 273 270 269 269 268 267 267 268 268 268 270 272 273 272 271 272 273 273 273 275 274 274 275 274 274 276 277 279 281 283 284 285 286 286 287 289
292 290 286 283 281 279 279 277 275 273 271 270 270 269 267 266 266 267 268 270 271 271 270 270 271 271 274 276 275 276 277 278 280 282 284 286 287 288 289 288 289 290 291
295 294 290 287 286 284 283 282 278 275 273 272 271 270 267 264 263 262 264 266 266 267 269 270 271 272 274 277 277 279 281 284 285 285 287 288 287 288 289 289 290 291 293
297 294 294 290 287 285 285 282 279 277 275 273 272 269 266 264 262 263 262 263 265 267 269 270 272 272 274 277 278 281 285 286 287 287 288 288 288 289 290 291 292 291 292
297 295 295 294 290 285 283 282 280 278 277 276 273 271 270 268 267 266 265 267 270 269 270 271 272 274 278 281 283 284 284 285 286 288 289 290 291 293 293 293 293 293 294
299 296 298 298 295 290 289 287 281 276 275 275 273 271 269 270 270 272 272 269 269 270 270 271 275 278 280 282 282 282 284 285 286 288 290 292 293 292 292 292 292 293 294
304 299 299 299 295 296 295 294 288 282 279 277 274 272 271 272 277 276 276 273 272 275 278 278 278 279 282 282 282 284 285 286 289 290 291 292 291 290 291 291 291 292 294
305 300 299 301 299 298 296 295 292 291 287 284 282 276 275 275 276 275 276 275 276 278 279 278 279 281 283 283 284 285 285 285 286 288 290 291 290 291 292 292 292 292 294
308 302 303 306 304 304 302 302 301 298 296 291 287 282 281 281 279 278 277 278 277 278 280 280 282 284 285 284 286 286 285 285 285 287 290 292 292 292 293 293 293 293 293
312 309 308 310 309 313 316 320 316 309 305 301 297 291 287 287 286 282 279 281 281 282 282 281 282 285 288 290 289 288 286 285 287 289 290 292 293 294 294 294 295 296 297
318 315 316 317 315 316 318 317 320 315 310 310 310 306 301 298 291 286 284 285 284 283 284 285 286 289 290 291 290 292 291 287 287 290 293 294 296 297 297 297 298 299 298
330 328 327 323 319 317 318 318 320 323 321 319 316 313 309 305 298 293 292 293 292 291 291 292 293 294 294 296 293 294 293 291 291 293 295 297 299 299 300 301 301 300 297
343 339 339 337 333 331 332 335 333 330 328 327 326 323 317 313 309 309 308 307 306 307 308 307 305 304 303 305 303 302 302 301 300 298 299 301 301 301 301 302 302 302 300
Height
5803 5804 5805 5806 5807 5809 5809 5811 5813 5814 5815 5815 5815 5816 5817 5818 5820 5821 5821 5822 5823 5825 5826 5827 5829 5829 5832 5833 5835 5835 5837 5838 5839 5840 5841 5842 5843 5843 5843 5844 5844 5844 5844
5796 5797 5798 5799 5801 5802 5802 5804 5806 5807 5808 5809 5810 5811 5812 5813 5814 5814 5815 5817 5818 5819 5819 5821 5823 5824 5826 5828 5829 5829 5830 5831 5833 5834 5835 5836 5837 5837 5837 5837 5837 5837 5837
5790 5791 5792 5792 5794 5796 5797 5798 5799 5801 5801 5802 5804 5805 5806 5807 5808 5809 5810 5811 5812 5813 5814 5815 5817 5818 5819 5821 5822 5823 5824 5825 5826 5828 5829 5829 5830 5830 5830 5830 5830 5831 5831
5783 5785 5786 5787 5788 5790 5791 5792 5793 5795 5796 5797 5798 5799 5801 5801 5802 5804 5805 5806 5806 5807 5808 5809 5809 5811 5813 5814 5815 5816 5817 5818 5819 5820 5821 5822 5822 5823 5823 5823 5823 5823 5823
5778 5780 5781 5782 5782 5783 5785 5786 5787 5789 5790 5791 5793 5794 5796 5797 5797 5798 5799 5800 5800 5801 5801 5802 5803 5804 5806 5807 5808 5809 5810 5811 5811 5812 5812 5813 5814 5815 5816 5816 5816 5815 5815
5773 5774 5775 5776 5776 5777 5779 5780 5781 5782 5784 5786 5787 5788 5790 5790 5791 5792 5793 5793 5794 5794 5795 5795 5796 5797 5798 5799 5800 5801 5802 5803 5803 5804 5805 5806 5806 5806 5807 5807 5807 5807 5806
5769 5769 5770 5771 5771 5772 5773 5774 5775 5776 5777 5779 5780 5781 5782 5783 5784 5785 5786 5786 5787 5787 5788 5789 5789 5790 5790 5791 5792 5793 5793 5794 5795 5796 5797 5797 5798 5798 5798 5799 5798 5798 5798
5764 5765 5765 5765 5766 5767 5767 5767 5768 5770 5771 5772 5773 5774 5775 5776 5777 5778 5778 5779 5779 5780 5780 5781 5782 5782 5782 5783 5784 5784 5785 5785 5786 5787 5788 5789 5789 5790 5790 5790 5789 5789 5789
5760 5760 5760 5760 5760 5760 5760 5761 5762 5763 5764 5766 5767 5768 5768 5769 5769 5770 5770 5771 5772 5772 5772 5773 5774 5774 5774 5775 5775 5776 5776 5777 5778 5779 5780 5780 5781 5781 5781 5781 5780 5780 5779
5756 5755 5755 5755 5755 5754 5754 5753 5755 5756 5758 5759 5760 5761 5762 5762 5762 5763 5763 5764 5764 5764 5765 5766 5766 5766 5767 5768 5768 5769 5769 5770 5770 5771 5771 5772 5772 5772 5772 5772 5771 5770 5769
5751 5751 5750 5750 5749 5749 5748 5749 5749 5750 5751 5752 5753 5754 5755 5755 5756 5756 5756 5756 5757 5757 5758 5759 5759 5759 5760 5760 5761 5761 5761 5762 5762 5763 5764 5764 5764 5763 5763 5762 5761 5760 5759
5746 5746 5745 5744 5743 5743 5743 5743 5743 5744 5744 5745 5746 5746 5747 5748 5749 5749 5749 5749 5750 5750 5751 5752 5752 5752 5753 5753 5753 5754 5754 5754 5755 5755 5755 5755 5755 5755 5754 5754 5753 5752 5750
5742 5741 5740 5739 5738 5738 5737 5737 5737 5737 5737 5738 5738 5739 5740 5741 5741 5742 5742 5742 5743 5743 5744 5744 5745 5745 5745 5746 5746 5746 5747 5747 5747 5747 5747 5747 5747 5746 5746 5745 5744 5743 5741
5738 5736 5735 5734 5733 5732 5732 5731 5731 5730 5730 5731 5731 5732 5733 5734 5734 5734 5735 5735 5736 5736 5736 5737 5737 5738 5738 5739 5739 5739 5739 5740 5740 5740 5739 5739 5739 5738 5737 5736 5735 5734 5732
5733 5731 5730 5729 5727 5727 5726 5725 5724 5724 5724 5724 5724 5725 5725 5726 5727 5727 5728 5728 5729 5729 5729 5730 5731 5731 5732 5732 5732 5732 5732 5732 5733 5733 5732 5732 5731 5730 5729 5728 5726 5725 5723
5728 5726 5725 5723 5722 5721 5720 5719 5718 5718 5718 5718 5717 5718 5719 5719 5720 5720 5721 5721 5722 5723 5723 5724 5724 5725 5725 5726 5726 5726 5726 5726 5725 5725 5725 5724 5724 5723 5721 5720 5718 5717 5716
5723 5722 5720 5718 5717 5716 5714 5713 5713 5712 5712 5711 5712 5712 5712 5713 5714 5714 5715 5715 5716 5717 5717 5718 5719 5719 5719 5719 5719 5719 5719 5719 5719 5719 5718 5717 5716 5715 5713 5712 5711 5709 5708
5719 5717 5715 5713 5712 5710 5709 5708 5708 5707 5707 5706 5706 5706 5707 5708 5708 5708 5709 5709 5710 5711 5711 5712 5713 5713 5713 5713 5714 5713 5713 5713 5713 5712 5711 5710 5709 5708 5706 5705 5704 5702 5701
5715 5713 5711 5709 5707 5706 5705 5704 5703 5702 5702 5702 5702 5702 5702 5703 5703 5704 5704 5705 5705 5706 5706 5707 5707 5707 5708 5708 5708 5707 5707 5707 5706 5706 5705 5704 5702 5701 5700 5699 5697 5696 5694
5711 5709 5707 5705 5704 5703 5701 5700 5699 5699 5698 5698 5698 5698 5698 5699 5700 5700 5700 5700 5701 5701 5701 5702 5702 5702 5702 5702 5702 5701 5701 5701 5700 5699 5698 5697 5696 5695 5694 5693 5691 5690 5689
5707 5705 5704 5702 5701 5700 5699 5698 5696 5696 5695 5695 5695 5695 5695 5696 5696 5696 5696 5697 5697 5697 5697 5697 5697 5697 5697 5696 5696 5696 5695 5695 5694 5694 5693 5692 5691 5690 5688 5687 5686 5685 5684
5704 5703 5701 5700 5699 5698 5697 5695 5695 5694 5693 5693 5693 5692 5692 5693 5693 5693 5693 5693 5693 5693 5693 5693 5692 5692 5692 5691 5691 5691 5690 5689 5689 5688 5688 5687 5686 5685 5684 5683 5681 5680 5679
5703 5701 5700 5699 5697 5696 5695 5694 5693 5692 5692 5691 5691 5690 5690 5690 5689 5689 5689 5690 5689 5689 5689 5689 5688 5688 5687 5687 5686 5685 5685 5684 5684 5684 5683 5682 5681 5680 5679 5678 5677 5676 5675
5701 5700 5698 5697 5696 5695 5694 5693 5692 5691 5690 5690 5689 5688 5687 5687 5686 5686 5686 5686 5686 5686 5686 5685 5685 5684 5683 5683 5682 5681 5680 5680 5680 5679 5679 5678 5677 5677 5676 5675 5674 5673 5672
5700 5699 5697 5696 5695 5694 5693 5692 5691 5690 5689 5688 5687 5686 5686 5685 5685 5684 5684 5684 5683 5683 5683 5682 5682 5681 5680 5679 5678 5677 5677 5677 5676 5676 5675 5675 5674 5674 5673 5672 5671 5670 5669
5700 5698 5697 5695 5694 5693 5692 5691 5690 5689 5688 5687 5686 5685 5684 5684 5683 5683 5682 5682 5682 5681 5681 5680 5679 5678 5678 5677 5676 5675 5675 5674 5673 5673 5673 5672 5671 5671 5670 5669 5668 5667 5666